{"data":{"norad_id":65750,"epoch":"2026-09-20T22:29:02.433408Z","epoch_age_seconds":70922,"freshness":"FRESH","line1":"1 65750U 25216S   26263.93683372  .00018585  00000+0  55920-3 0  9999","line2":"2 65750  53.1581 143.3762 0000976  66.6332 293.4773 15.34434123 56446","mean_motion":15.34434123,"eccentricity":9.76e-5,"inclination_deg":53.1581,"raan_deg":143.3762,"arg_perigee_deg":66.6332,"mean_anomaly_deg":293.4773,"bstar":0.0005592,"rev_number":5644,"period_min":93.845671079357,"perigee_km":461.93416523056,"apogee_km":463.26947744849,"semimajor_km":6840.7388213395,"source":"CELESTRAK","updated_at":"2026-09-21T09:00:35.710350Z"}}